N7LK Weather Reports


time (UTC)temp
F
wind
direction
speed
knots
gust
knots
rain 1hr
in
rain 24hr
in
rain mn
in
humidity
%
barometer
mb
20260905184329 98 139 0.9 3.5 0.00 0.00 0.00 30 1011.9
20260905183335 97 157 1.7 6.1 0.00 0.00 0.00 31 1012.0
20260905182342 96 150 3.5 6.1 0.00 0.00 0.00 31 1012.0
20260905181348 96 287 0.9 6.1 0.00 0.00 0.00 30 1012.1
20260905180338 96 154 2.6 5.2 0.00 0.00 0.00 30 1012.1
20260905175344 96 189 1.7 4.3 0.00 0.00 0.00 31 1012.2
20260905174332 95 163 1.7 5.2 0.00 0.00 0.00 31 1012.1
20260905173339 95 221 1.7 3.5 0.00 0.00 0.00 31 1012.2
20260905172350 95 194 0.9 4.3 0.00 0.00 0.00 32 1012.1
20260905171334 95 35 1.7 2.6 0.00 0.00 0.00 31 1012.1
20260905170341 95 42 0.9 3.5 0.00 0.00 0.00 31 1012.1
20260905165328 94 5 0.9 2.6 0.00 0.00 0.00 32 1012.0
20260905164339 94 53 1.7 3.5 0.00 0.00 0.00 32 1012.0
20260905163345 94 24 0.0 1.7 0.00 0.00 0.00 33 1012.0
20260905162332 93 80 0.0 2.6 0.00 0.00 0.00 33 1012.1
20260905161340 93 150 0.0 1.7 0.00 0.00 0.00 35 1012.0
20260905160350 93 53 0.0 1.7 0.00 0.00 0.00 35 1011.9
20260905155356 92 344 0.9 1.7 0.00 0.00 0.00 35 1011.8
20260905154402 92 42 0.9 1.7 0.00 0.00 0.00 35 1011.9
20260905153349 92 68 0.0 0.0 0.00 0.00 0.00 35 1011.9
20260905152335 91 99 0.0 1.7 0.00 0.00 0.00 36 1011.8
20260905151326 90 42 0.9 1.7 0.00 0.00 0.00 38 1011.6
20260905150353 90 330 0.0 0.0 0.00 0.00 0.00 39 1011.5
20260905145337 89 329 0.0 0.9 0.00 0.00 0.00 40 1011.5
20260905144344 89 319 0.0 0.9 0.00 0.00 0.00 40 1011.6
20260905143335 88 319 0.0 0.0 0.00 0.00 0.00 41 1011.5
20260905142341 86 319 0.0 0.0 0.00 0.00 0.00 45 1011.3
20260905141328 85 319 0.0 0.0 0.00 0.00 0.00 47 1011.3
20260905140337 84 319 0.0 0.0 0.00 0.00 0.00 50 1011.2
20260905135345 83 319 0.0 0.0 0.00 0.00 0.00 49 1011.2
20260905134331 83 319 0.0 0.0 0.00 0.00 0.00 48 1011.0
20260905133338 83 319 0.0 0.0 0.00 0.00 0.00 50 1010.9
20260905132405 83 319 0.0 0.0 0.00 0.00 0.00 49 1010.8
20260905131356 83 319 0.0 0.0 0.00 0.00 0.00 48 1010.7
20260905130340 83 319 0.0 0.0 0.00 0.00 0.00 46 1010.6
20260905125347 83 319 0.0 0.0 0.00 0.00 0.00 46 1010.4
20260905124333 83 319 0.0 0.0 0.00 0.00 0.00 46 1010.4
20260905123339 83 319 0.0 0.0 0.00 0.00 0.00 45 1010.4
20260905122330 83 319 0.0 0.9 0.00 0.00 0.00 45 1010.2
20260905121338 84 319 0.0 0.9 0.00 0.00 0.00 45 1010.2
20260905120346 84 319 0.0 0.0 0.00 0.00 0.00 44 1010.1
20260905115334 85 319 0.0 0.0 0.00 0.00 0.00 43 1010.1
20260905114341 85 319 0.0 0.0 0.00 0.00 0.00 42 1010.1
20260905113327 85 319 0.0 0.9 0.00 0.00 0.00 42 1010.1
20260905112354 86 315 0.0 0.0 0.00 0.00 0.00 41 1010.1
20260905111341 86 315 0.0 0.0 0.00 0.00 0.00 41 1010.0
20260905110333 87 315 0.0 0.0 0.00 0.00 0.00 39 1010.0
20260905105339 87 317 0.0 0.9 0.00 0.00 0.00 39 1009.9
20260905104327 88 287 0.0 0.9 0.00 0.00 0.00 38 1009.9
20260905103334 88 345 0.0 0.9 0.00 0.00 0.00 38 1009.9
20260905102346 88 345 0.0 1.7 0.00 0.00 0.00 37 1009.8
20260905101353 89 345 0.9 2.6 0.00 0.00 0.00 37 1009.7
20260905100340 89 340 0.9 3.5 0.00 0.00 0.00 36 1009.7
20260905095326 89 254 1.7 3.5 0.00 0.00 0.00 36 1009.7
20260905094332 89 338 0.9 4.3 0.00 0.00 0.00 37 1009.7
20260905093341 89 321 2.6 5.2 0.00 0.00 0.00 37 1009.8
20260905092327 88 319 2.6 5.2 0.00 0.00 0.00 37 1009.7
20260905091334 88 324 1.7 5.2 0.00 0.00 0.00 37 1009.7
20260905090342 88 303 2.6 4.3 0.00 0.00 0.00 37 1009.7
20260905085350 88 348 0.9 3.5 0.00 0.00 0.00 38 1009.7
20260905084359 89 332 1.7 4.3 0.00 0.00 0.00 37 1009.7
20260905083343 89 286 0.0 2.6 0.00 0.00 0.00 37 1009.7
20260905082347 89 279 0.9 2.6 0.00 0.00 0.00 37 1009.7
20260905081333 89 288 1.7 3.5 0.00 0.00 0.00 36 1009.7
20260905080401 90 269 0.9 5.2 0.00 0.00 0.00 36 1009.7
20260905075333 90 304 0.0 0.9 0.00 0.00 0.00 36 1009.7
20260905074340 90 304 0.0 0.9 0.00 0.00 0.00 35 1009.7
20260905073328 91 304 0.0 0.9 0.00 0.00 0.00 34 1009.7
20260905072334 91 286 0.0 2.6 0.00 0.00 0.00 34 1009.7
20260905071344 91 284 0.9 1.7 0.00 0.00 0.00 33 1009.6
20260905070332 92 297 0.0 0.0 0.00 0.00 0.00 32 1009.6
20260905065339 92 300 0.0 0.9 0.00 0.00 0.00 32 1009.6
20260905064405 93 274 0.0 4.3 0.00 0.00 0.00 31 1009.6
20260905063334 93 269 0.0 3.5 0.00 0.00 0.00 31 1009.4
20260905062339 93 262 2.6 6.1 0.00 0.00 0.00 30 1009.3
20260905061326 93 257 0.9 4.3 0.00 0.00 0.00 29 1009.3
20260905060333 93 275 2.6 4.3 0.00 0.00 0.00 29 1009.3
20260905055344 94 227 0.9 1.7 0.00 0.00 0.00 29 1009.3
20260905054329 94 270 0.0 2.6 0.00 0.00 0.00 28 1009.2
20260905053337 94 251 0.9 3.5 0.00 0.00 0.00 28 1009.1
20260905052344 95 316 2.6 7.0 0.00 0.00 0.00 28 1009.1
20260905051335 95 277 2.6 6.1 0.00 0.00 0.00 28 1009.0
20260905050341 95 236 0.9 5.2 0.00 0.00 0.00 28 1009.0
20260905045345 95 242 1.7 6.1 0.00 0.00 0.00 28 1008.9
20260905044332 95 265 2.6 7.0 0.00 0.00 0.00 28 1008.9
20260905043343 96 225 1.7 8.7 0.00 0.00 0.00 28 1008.8
20260905042331 96 255 3.5 10.4 0.00 0.00 0.00 28 1008.7
20260905041338 96 230 2.6 7.8 0.00 0.00 0.00 28 1008.6
20260905040344 96 267 3.5 7.8 0.00 0.00 0.00 28 1008.6
20260905035334 96 243 5.2 9.6 0.00 0.00 0.00 28 1008.5
20260905034340 97 268 2.6 8.7 0.00 0.00 0.00 29 1008.3
20260905033326 97 236 4.3 8.7 0.00 0.00 0.00 28 1008.2
20260905032333 97 259 3.5 8.7 0.00 0.00 0.00 28 1008.2
20260905031343 97 222 2.6 8.7 0.00 0.00 0.00 27 1008.1
20260905030329 97 233 3.5 7.0 0.00 0.00 0.00 27 1007.8
20260905025336 98 277 2.6 8.7 0.00 0.00 0.00 26 1007.7
20260905024400 98 236 2.6 10.4 0.00 0.00 0.00 25 1007.6
20260905023329 98 207 2.6 11.3 0.00 0.00 0.00 24 1007.5
20260905022336 99 254 5.2 12.2 0.00 0.00 0.00 24 1007.3
20260905021341 99 269 4.3 11.3 0.00 0.00 0.00 24 1007.3
20260905020328 99 249 3.5 11.3 0.00 0.00 0.00 24 1007.1
20260905015334 100 240 3.5 11.3 0.00 0.00 0.00 23 1007.1
20260905014346 100 292 4.3 10.4 0.00 0.00 0.00 23 1007.0
20260905013333 101 222 1.7 8.7 0.00 0.00 0.00 23 1006.9
20260905012341 101 275 3.5 10.4 0.00 0.00 0.00 23 1006.9
20260905011333 102 230 2.6 7.8 0.00 0.00 0.00 23 1006.7
20260905010340 103 277 2.6 7.8 0.00 0.00 0.00 23 1006.8
20260905005329 103 281 3.5 7.8 0.00 0.00 0.00 23 1006.8
20260905004336 103 183 2.6 4.3 0.00 0.00 0.00 25 1006.9
20260905003328 103 184 0.9 2.6 0.00 0.00 0.00 26 1006.8
20260905002334 103 118 0.9 5.2 0.00 0.00 0.00 26 1006.9
20260905001342 102 128 4.3 7.0 0.00 0.00 0.00 26 1006.9
20260905000329 101 123 1.7 4.3 0.00 0.00 0.00 27 1007.0
20260904235401 100 196 0.0 1.7 0.00 0.00 0.00 27 1007.0
20260904234327 100 92 0.0 5.2 0.00 0.00 0.00 27 1007.0
20260904233334 101 195 0.0 3.5 0.00 0.00 0.00 27 1007.1
20260904232343 101 5 2.6 3.5 0.00 0.00 0.00 27 1007.1
20260904231332 101 209 2.6 5.2 0.00 0.00 0.00 28 1007.4
20260904230337 101 142 2.6 7.8 0.00 0.00 0.00 28 1007.4
20260904225344 101 161 1.7 7.8 0.00 0.00 0.00 28 1007.4
20260904224351 101 178 3.5 7.8 0.00 0.00 0.00 28 1007.5
20260904223341 101 199 1.7 7.0 0.00 0.00 0.00 27 1007.7
20260904222345 102 205 4.3 9.6 0.00 0.00 0.00 27 1007.6
20260904221333 103 223 6.1 8.7 0.00 0.00 0.00 26 1007.8
20260904220341 103 193 5.2 7.8 0.00 0.00 0.00 26 1007.9
20260904215349 102 184 3.5 8.7 0.00 0.00 0.00 28 1008.1
20260904214358 102 69 1.7 6.1 0.00 0.00 0.00 28 1008.3
20260904213343 102 242 1.7 7.8 0.00 0.00 0.00 29 1008.4
20260904212330 103 186 2.6 8.7 0.00 0.00 0.00 28 1008.5
20260904211337 103 169 2.6 6.1 0.00 0.00 0.00 30 1008.6
20260904210328 102 130 0.9 7.8 0.00 0.00 0.00 30 1008.8
20260904205335 101 271 2.6 7.8 0.00 0.00 0.00 30 1008.8
20260904204343 101 261 3.5 6.1 0.00 0.00 0.00 31 1008.9
20260904203329 100 130 1.7 8.7 0.00 0.00 0.00 32 1009.2
20260904202340 100 122 2.6 7.8 0.00 0.00 0.00 33 1009.3
20260904201328 100 171 2.6 8.7 0.00 0.00 0.00 33 1009.5
20260904200334 99 268 1.7 4.3 0.00 0.00 0.00 33 1009.7
20260904195338 99 204 4.3 13.0 0.00 0.00 0.00 34 1009.9
20260904194329 99 150 3.5 8.7 0.00 0.00 0.00 35 1009.9
20260904193336 98 108 3.5 6.1 0.00 0.00 0.00 36 1009.9
20260904192343 98 142 0.9 7.8 0.00 0.00 0.00 36 1010.1
20260904191328 98 165 5.2 9.6 0.00 0.00 0.00 37 1010.2
20260904190339 98 140 5.2 10.4 0.00 0.00 0.00 37 1010.4
20260904185327 98 113 4.3 6.1 0.00 0.00 0.00 38 1010.5